GW5434 Weather Reports


time (UTC)temp
F
wind
direction
speed
knots
gust
knots
rain 1hr
in
rain 24hr
in
rain mn
in
humidity
%
barometer
mb
20260905101516 75 200 0.0 0.0 0.00 0.35 0.00 96 1014.5
20260905100025 75 186 0.0 0.9 0.00 0.35 0.00 96 1014.6
20260905094526 75 184 0.0 0.0 0.00 0.35 0.00 96 1014.5
20260905093030 75 184 0.0 0.0 0.00 0.35 0.00 95 1014.4
20260905091534 75 184 0.0 0.0 0.00 0.35 0.00 96 1014.2
20260905090019 75 184 0.0 0.0 0.00 0.35 0.00 95 1014.3
20260905084527 75 227 0.0 0.0 0.00 0.35 0.00 95 1014.2
20260905083028 75 227 0.0 0.0 0.00 0.35 0.00 96 1014.1
20260905081534 75 227 0.0 0.0 0.00 0.35 0.00 95 1014.0
20260905080031 75 227 0.0 0.9 0.00 0.35 0.00 95 1013.9
20260905074521 75 185 0.0 0.9 0.00 0.35 0.00 95 1013.8
20260905073034 75 185 0.0 0.0 0.00 0.35 0.00 95 1013.9
20260905071541 75 216 0.0 0.9 0.00 0.35 0.00 95 1014.0
20260905070033 75 139 0.0 0.9 0.00 0.35 0.00 95 1014.0
20260905064536 75 106 0.0 0.0 0.00 0.35 0.00 95 1014.0
20260905063023 75 106 0.0 0.0 0.00 0.35 0.00 95 1014.0
20260905061531 75 106 0.0 0.0 0.00 0.35 0.00 95 1014.0
20260905060036 75 106 0.0 0.0 0.00 0.35 0.00 94 1013.9
20260905054542 75 106 0.0 0.0 0.00 0.35 0.00 94 1014.0
20260905053033 75 107 0.0 0.0 0.00 0.35 0.00 94 1013.8
20260905051527 75 106 0.0 0.0 0.00 0.35 0.00 94 1013.9
20260905050031 75 106 0.0 0.9 0.00 0.35 0.00 94 1014.0
20260905044530 76 106 0.0 0.0 0.00 0.35 0.35 94 1014.1
20260905043031 76 106 0.0 0.0 0.00 0.35 0.35 94 1014.2
20260905041533 76 73 0.0 0.0 0.00 0.35 0.35 94 1014.4
20260905040029 76 122 0.0 0.0 0.00 0.35 0.35 94 1014.5
20260905034509 77 122 0.0 0.0 0.00 0.35 0.35 94 1014.7
20260905033013 77 122 0.0 0.0 0.00 0.35 0.35 94 1014.9
20260905031520 77 221 0.0 1.7 0.00 0.35 0.35 94 1014.7
20260905030024 77 215 0.0 0.0 0.00 0.35 0.35 94 1015.1
20260905024530 77 110 0.0 0.0 0.00 0.35 0.35 94 1015.2
20260905023018 77 110 0.0 0.0 0.00 0.35 0.35 94 1014.9
20260905021516 77 110 0.0 0.0 0.00 0.35 0.35 93 1014.9
20260905020024 77 110 0.0 0.0 0.00 0.35 0.35 93 1014.6
20260905014526 78 110 0.0 0.0 0.00 0.35 0.35 93 1014.6
20260905013031 78 110 0.0 0.0 0.00 0.35 0.35 93 1014.6
20260905011510 78 109 0.0 0.0 0.00 0.35 0.35 93 1014.5
20260905010018 78 109 0.0 0.0 0.00 0.35 0.35 93 1014.4
20260905004532 79 109 0.0 0.0 0.00 0.35 0.35 92 1014.3
20260905003004 79 109 0.0 0.0 0.00 0.35 0.35 92 1014.4
20260905001508 80 109 0.0 0.0 0.00 0.35 0.35 91 1014.5
20260905000014 80 109 0.0 0.0 0.00 0.35 0.35 91 1014.7
20260904234520 80 150 0.0 0.0 0.00 0.35 0.35 90 1014.9
20260904233025 80 212 0.0 0.0 0.00 0.35 0.35 90 1014.9
20260904231509 80 243 0.0 0.0 0.00 0.35 0.35 90 1014.8
20260904230012 80 241 0.0 0.9 0.00 0.35 0.35 90 1014.8
20260904224512 80 266 0.0 0.0 0.01 0.35 0.35 89 1014.5
20260904223029 80 338 0.0 0.9 0.01 0.35 0.35 89 1014.3
20260904221529 80 53 0.0 0.9 0.01 0.35 0.35 89 1014.2
20260904220008 80 124 0.0 1.7 0.01 0.35 0.35 89 1014.1
20260904214512 81 134 0.0 1.7 0.00 0.34 0.34 88 1013.9
20260904213026 81 136 0.9 1.7 0.00 0.34 0.34 87 1013.7
20260904211526 82 95 0.0 1.7 0.00 0.34 0.34 84 1013.9
20260904210036 83 115 0.9 5.2 0.00 0.34 0.34 83 1013.8
20260904204519 84 120 1.7 7.0 0.00 0.34 0.34 81 1013.9
20260904203014 86 216 0.9 4.3 0.00 0.34 0.34 78 1013.8
20260904201518 87 287 1.7 4.3 0.00 0.34 0.34 76 1013.6
20260904200027 86 283 0.9 4.3 0.00 0.34 0.34 77 1013.8
20260904194529 85 203 0.0 4.3 0.00 0.34 0.34 79 1013.9
20260904193033 85 345 0.9 2.6 0.00 0.34 0.34 78 1013.9
20260904191514 82 311 1.7 3.5 0.00 0.34 0.34 82 1014.6
20260904190029 81 307 2.6 5.2 0.00 0.34 0.34 85 1015.0
20260904184529 81 250 1.7 6.1 0.00 0.34 0.34 84 1015.4
20260904183029 80 217 1.7 6.1 0.03 0.34 0.34 86 1015.8
20260904181530 80 257 0.0 4.3 0.06 0.34 0.34 90 1015.9
20260904180017 79 208 1.7 4.3 0.06 0.34 0.34 91 1016.3
20260904174529 79 243 0.0 3.5 0.06 0.34 0.34 91 1016.4
20260904173028 79 217 0.9 2.6 0.03 0.31 0.31 90 1016.4
20260904171537 79 288 0.0 2.6 0.00 0.28 0.28 89 1016.3
20260904170035 79 275 0.9 3.5 0.18 0.28 0.28 90 1016.4
20260904164518 78 224 0.0 1.7 0.26 0.28 0.28 90 1016.5
20260904163030 77 219 0.9 2.6 0.28 0.28 0.28 91 1016.6
20260904161531 77 219 0.9 4.3 0.28 0.28 0.28 90 1016.9
20260904160013 78 137 0.9 7.8 0.10 0.10 0.10 87 1017.0
20260904154517 82 152 1.7 2.6 0.02 0.02 0.02 83 1017.0
20260904153028 83 178 0.0 0.0 0.00 0.00 0.00 80 1016.7
20260904151504 82 224 0.0 0.9 0.00 0.00 0.00 80 1016.4
20260904150019 82 37 0.0 0.9 0.00 0.00 0.00 80 1016.3
20260904144511 81 4 0.9 1.7 0.00 0.00 0.00 80 1016.3
20260904143017 81 328 0.0 1.7 0.00 0.00 0.00 81 1016.1
20260904141523 80 297 0.9 4.3 0.00 0.00 0.00 82 1016.1
20260904140005 80 330 0.9 2.6 0.00 0.00 0.00 83 1016.1
20260904134524 79 334 0.0 2.6 0.00 0.00 0.00 84 1016.1
20260904133016 78 302 0.9 2.6 0.00 0.00 0.00 87 1015.9
20260904131523 77 307 0.0 1.7 0.00 0.00 0.00 89 1015.9
20260904130033 76 40 0.0 0.0 0.00 0.00 0.00 90 1016.0
20260904124504 76 113 0.0 0.0 0.00 0.00 0.00 90 1016.0
20260904123012 76 152 0.0 0.0 0.00 0.00 0.00 91 1015.9
20260904121516 75 19 0.0 0.0 0.00 0.00 0.00 92 1015.7
20260904120025 75 19 0.0 0.0 0.00 0.00 0.00 92 1015.6
20260904114535 74 349 0.0 0.0 0.00 0.00 0.00 93 1015.4
20260904113010 74 22 0.0 0.0 0.00 0.00 0.00 93 1015.4
20260904111524 74 22 0.0 0.0 0.00 0.00 0.00 93 1015.3
20260904110022 74 108 0.0 0.0 0.00 0.00 0.00 92 1015.2
20260904104523 75 108 0.0 0.0 0.00 0.00 0.00 92 1015.1
20260904103031 75 108 0.0 0.0 0.00 0.00 0.00 91 1015.1